Location: Asheville, NC
(35.6000°N, 82.5500°W)
Time: 09:31:08
(UTC-04:00)

Vanguard 3 - Pass Details

Date: 09 March 2018
Orbit: 508 x 3264 km, 33.3° (Epoch: 24 June)

Event Time Altitude Azimuth Distance (km) Brightness Sun altitude
Rises 16:10:24 0° 279° (W) 4,679 11.8 26.8°
Reaches altitude 10° 16:14:48 10° 268° (W) 3,179 11.5 26.0°
Maximum altitude 16:20:18 23° 219° (SW) 1,801 10.5 25.0°
Drops below altitude 10° 16:24:11 10° 167° (SSE) 2,151 9.6 24.3°
Sets 16:26:33 0° 150° (SSE) 2,859 9.9 23.9°
